Time,TemperatureF,DewpointF,PressureIn,WindDirection,WindDirectionDegrees,WindSpeedMPH,WindSpeedGustMPH,Humidity,HourlyPrecipIn,Conditions,Clouds,dailyrainin,SoftwareType,DateUTC
2013-07-24 00:02:00,65.2,55.9,30.20,North,360,1.0,4.0,72,0.00,,,0.00,Weather View 32 v70,2013-07-24 05:02:00,
2013-07-24 00:07:00,65.1,56.2,30.20,North,360,0.0,4.0,73,0.00,,,0.00,Weather View 32 v70,2013-07-24 05:07:00,
2013-07-24 00:12:00,64.9,56.0,30.20,North,360,1.0,4.0,73,0.00,,,0.00,Weather View 32 v70,2013-07-24 05:12:00,
2013-07-24 00:17:00,65.0,55.7,30.20,NNE,22,2.0,4.0,72,0.00,,,0.00,Weather View 32 v70,2013-07-24 05:17:00,
2013-07-24 00:22:00,65.1,56.2,30.21,North,360,1.0,4.0,73,0.00,,,0.00,Weather View 32 v70,2013-07-24 05:22:00,
2013-07-24 00:27:00,65.1,56.2,30.21,NNE,22,1.0,4.0,73,0.00,,,0.00,Weather View 32 v70,2013-07-24 05:27:00,
2013-07-24 00:32:00,64.9,56.0,30.21,NNE,22,1.0,4.0,73,0.00,,,0.00,Weather View 32 v70,2013-07-24 05:32:00,
2013-07-24 00:37:00,64.8,55.5,30.21,NNE,22,2.0,4.0,72,0.00,,,0.00,Weather View 32 v70,2013-07-24 05:37:00,
2013-07-24 00:42:00,64.7,55.8,30.21,NNE,22,2.0,4.0,73,0.00,,,0.00,Weather View 32 v70,2013-07-24 05:42:00,
2013-07-24 00:47:00,64.4,56.3,30.21,NNE,22,0.0,4.0,75,0.00,,,0.00,Weather View 32 v70,2013-07-24 05:47:00,
2013-07-24 00:52:00,64.0,55.9,30.21,NNE,22,0.0,4.0,75,0.00,,,0.00,Weather View 32 v70,2013-07-24 05:52:00,
2013-07-24 00:57:00,63.9,55.8,30.21,NNE,22,0.0,4.0,75,0.00,,,0.00,Weather View 32 v70,2013-07-24 05:57:00,
2013-07-24 01:02:00,63.6,55.5,30.21,NNE,22,0.0,4.0,75,0.00,,,0.00,Weather View 32 v70,2013-07-24 06:02:00,
2013-07-24 01:07:00,63.3,55.6,30.21,NNE,22,0.0,4.0,76,0.00,,,0.00,Weather View 32 v70,2013-07-24 06:07:00,
2013-07-24 01:12:00,62.9,55.6,30.21,NNE,22,0.0,4.0,77,0.00,,,0.00,Weather View 32 v70,2013-07-24 06:12:00,
2013-07-24 01:17:00,62.8,55.5,30.21,NNE,22,1.0,2.0,77,0.00,,,0.00,Weather View 32 v70,2013-07-24 06:17:00,
2013-07-24 01:22:00,62.9,55.6,30.21,NNE,22,0.0,2.0,77,0.00,,,0.00,Weather View 32 v70,2013-07-24 06:22:00,
2013-07-24 01:27:00,63.1,58.2,30.21,WSW,247,1.0,2.0,84,0.00,,,0.00,Weather View 32 v70,2013-07-24 06:27:00,
2013-07-24 01:32:00,62.7,58.1,30.20,WSW,247,2.0,2.0,85,0.00,,,0.00,Weather View 32 v70,2013-07-24 06:32:00,
2013-07-24 01:37:00,62.4,58.5,30.20,WSW,247,0.0,2.0,87,0.00,,,0.00,Weather View 32 v70,2013-07-24 06:37:00,
2013-07-24 01:42:00,62.0,58.1,30.20,WSW,247,0.0,2.0,87,0.00,,,0.00,Weather View 32 v70,2013-07-24 06:42:00,
2013-07-24 01:47:00,61.9,58.0,30.21,WSW,247,1.0,2.0,87,0.00,,,0.00,Weather View 32 v70,2013-07-24 06:47:00,
2013-07-24 01:52:00,61.9,58.0,30.20,SW,225,0.0,2.0,87,0.00,,,0.00,Weather View 32 v70,2013-07-24 06:52:00,
2013-07-24 01:57:00,61.9,58.3,30.20,SW,225,0.0,2.0,88,0.00,,,0.00,Weather View 32 v70,2013-07-24 06:57:00,
2013-07-24 02:02:00,61.8,58.2,30.20,SW,225,0.0,2.0,88,0.00,,,0.00,Weather View 32 v70,2013-07-24 07:02:00,
2013-07-24 02:07:00,61.7,58.1,30.20,SW,225,0.0,2.0,88,0.00,,,0.00,Weather View 32 v70,2013-07-24 07:07:00,
2013-07-24 02:12:00,61.7,57.8,30.20,SW,225,0.0,2.0,87,0.00,,,0.00,Weather View 32 v70,2013-07-24 07:12:00,
2013-07-24 02:17:00,61.5,56.6,30.21,SW,225,0.0,2.0,84,0.00,,,0.00,Weather View 32 v70,2013-07-24 07:17:00,
2013-07-24 02:22:00,61.3,56.4,30.22,SW,225,0.0,2.0,84,0.00,,,0.00,Weather View 32 v70,2013-07-24 07:22:00,
2013-07-24 02:27:00,61.2,57.6,30.21,SW,225,1.0,2.0,88,0.00,,,0.00,Weather View 32 v70,2013-07-24 07:27:00,
2013-07-24 02:32:00,61.4,58.7,30.22,SW,225,0.0,2.0,91,0.00,,,0.00,Weather View 32 v70,2013-07-24 07:32:00,
2013-07-24 02:37:00,61.4,58.1,30.22,SW,225,0.0,2.0,89,0.00,,,0.00,Weather View 32 v70,2013-07-24 07:37:00,
2013-07-24 02:42:00,61.3,58.0,30.21,SW,225,0.0,2.0,89,0.00,,,0.00,Weather View 32 v70,2013-07-24 07:42:00,
2013-07-24 02:47:00,61.0,57.1,30.21,SW,225,0.0,2.0,87,0.00,,,0.00,Weather View 32 v70,2013-07-24 07:47:00,
2013-07-24 02:52:00,60.9,56.3,30.21,North,360,1.0,2.0,85,0.00,,,0.00,Weather View 32 v70,2013-07-24 07:52:00,
2013-07-24 02:58:00,60.6,56.1,30.21,North,360,2.0,2.0,85,0.00,,,0.00,Weather View 32 v70,2013-07-24 07:58:00,
2013-07-24 03:03:00,60.3,56.4,30.22,North,360,2.0,2.0,87,0.00,,,0.00,Weather View 32 v70,2013-07-24 08:03:00,
2013-07-24 03:08:00,60.0,55.8,30.22,North,360,1.0,2.0,86,0.00,,,0.00,Weather View 32 v70,2013-07-24 08:08:00,
2013-07-24 03:13:00,59.8,55.9,30.22,North,360,1.0,2.0,87,0.00,,,0.00,Weather View 32 v70,2013-07-24 08:13:00,
2013-07-24 03:18:00,59.7,56.1,30.22,North,360,0.0,2.0,88,0.00,,,0.00,Weather View 32 v70,2013-07-24 08:18:00,
2013-07-24 03:23:00,59.4,56.1,30.21,NE,45,1.0,2.0,89,0.00,,,0.00,Weather View 32 v70,2013-07-24 08:23:00,
2013-07-24 03:28:00,59.3,56.4,30.21,NE,45,0.0,2.0,90,0.00,,,0.00,Weather View 32 v70,2013-07-24 08:28:00,
2013-07-24 03:33:00,59.2,56.3,30.22,NE,45,0.0,2.0,90,0.00,,,0.00,Weather View 32 v70,2013-07-24 08:33:00,
2013-07-24 03:38:00,59.4,57.1,30.22,NE,45,0.0,2.0,92,0.00,,,0.00,Weather View 32 v70,2013-07-24 08:38:00,
2013-07-24 03:43:00,59.4,56.8,30.22,NE,45,1.0,2.0,91,0.00,,,0.00,Weather View 32 v70,2013-07-24 08:43:00,
2013-07-24 03:48:00,59.4,56.8,30.22,NE,45,2.0,2.0,91,0.00,,,0.00,Weather View 32 v70,2013-07-24 08:48:00,
2013-07-24 03:53:00,59.3,56.7,30.21,NE,45,0.0,2.0,91,0.00,,,0.00,Weather View 32 v70,2013-07-24 08:53:00,
2013-07-24 03:58:00,59.2,56.9,30.22,NE,45,0.0,2.0,92,0.00,,,0.00,Weather View 32 v70,2013-07-24 08:58:00,
2013-07-24 04:03:00,59.4,58.0,30.22,North,360,0.0,2.0,95,0.00,,,0.00,Weather View 32 v70,2013-07-24 09:03:00,
2013-07-24 04:08:00,59.4,57.4,30.22,North,360,1.0,2.0,93,0.00,,,0.00,Weather View 32 v70,2013-07-24 09:08:00,
2013-07-24 04:13:00,59.4,57.4,30.22,North,360,1.0,2.0,93,0.00,,,0.00,Weather View 32 v70,2013-07-24 09:13:00,
2013-07-24 04:18:00,59.3,57.0,30.21,North,360,0.0,2.0,92,0.00,,,0.00,Weather View 32 v70,2013-07-24 09:18:00,
2013-07-24 04:23:00,59.1,56.5,30.22,North,360,2.0,2.0,91,0.00,,,0.00,Weather View 32 v70,2013-07-24 09:23:00,
2013-07-24 04:28:00,58.9,56.3,30.22,North,360,2.0,2.0,91,0.00,,,0.00,Weather View 32 v70,2013-07-24 09:28:00,
2013-07-24 04:33:00,58.9,56.6,30.22,North,360,0.0,2.0,92,0.00,,,0.00,Weather View 32 v70,2013-07-24 09:33:00,
2013-07-24 04:38:00,58.7,56.1,30.21,North,360,2.0,2.0,91,0.00,,,0.00,Weather View 32 v70,2013-07-24 09:38:00,
2013-07-24 04:43:00,58.5,55.9,30.21,North,360,1.0,2.0,91,0.00,,,0.00,Weather View 32 v70,2013-07-24 09:43:00,
2013-07-24 04:48:00,58.3,56.0,30.21,North,360,1.0,2.0,92,0.00,,,0.00,Weather View 32 v70,2013-07-24 09:48:00,
2013-07-24 04:53:00,58.2,55.9,30.21,North,360,0.0,2.0,92,0.00,,,0.00,Weather View 32 v70,2013-07-24 09:53:00,
2013-07-24 04:58:00,58.1,56.4,30.22,North,360,0.0,2.0,94,0.00,,,0.00,Weather View 32 v70,2013-07-24 09:58:00,
2013-07-24 05:03:00,58.0,56.3,30.22,North,360,2.0,2.0,94,0.00,,,0.00,Weather View 32 v70,2013-07-24 10:03:00,
2013-07-24 05:08:00,57.9,55.9,30.22,North,360,2.0,2.0,93,0.00,,,0.00,Weather View 32 v70,2013-07-24 10:08:00,
2013-07-24 05:13:00,57.9,55.9,30.22,North,360,1.0,2.0,93,0.00,,,0.00,Weather View 32 v70,2013-07-24 10:13:00,
2013-07-24 05:18:00,57.9,56.2,30.22,North,360,1.0,2.0,94,0.00,,,0.00,Weather View 32 v70,2013-07-24 10:18:00,
2013-07-24 05:23:00,57.9,56.2,30.22,North,360,0.0,2.0,94,0.00,,,0.00,Weather View 32 v70,2013-07-24 10:23:00,
2013-07-24 05:28:00,58.0,56.6,30.22,North,360,0.0,2.0,95,0.00,,,0.00,Weather View 32 v70,2013-07-24 10:28:00,
2013-07-24 05:33:00,57.9,55.9,30.22,North,360,2.0,2.0,93,0.00,,,0.00,Weather View 32 v70,2013-07-24 10:33:00,
2013-07-24 05:38:00,57.7,55.7,30.22,North,360,1.0,2.0,93,0.00,,,0.00,Weather View 32 v70,2013-07-24 10:38:00,
2013-07-24 05:43:00,57.7,56.0,30.23,North,360,2.0,2.0,94,0.00,,,0.00,Weather View 32 v70,2013-07-24 10:43:00,
2013-07-24 05:48:00,58.1,57.2,30.23,WNW,292,3.0,4.0,97,0.00,,,0.00,Weather View 32 v70,2013-07-24 10:48:00,
2013-07-24 05:54:00,58.5,57.9,30.24,West,270,2.0,4.0,98,0.00,,,0.00,Weather View 32 v70,2013-07-24 10:54:00,
2013-07-24 05:59:00,58.6,58.0,30.24,West,270,1.0,4.0,98,0.00,,,0.00,Weather View 32 v70,2013-07-24 10:59:00,
2013-07-24 06:04:00,58.6,58.0,30.24,West,270,1.0,4.0,98,0.00,,,0.00,Weather View 32 v70,2013-07-24 11:04:00,
2013-07-24 06:09:00,58.6,58.0,30.24,West,270,2.0,4.0,98,0.00,,,0.00,Weather View 32 v70,2013-07-24 11:09:00,
2013-07-24 06:14:00,58.5,57.9,30.24,West,270,1.0,4.0,98,0.00,,,0.00,Weather View 32 v70,2013-07-24 11:14:00,
2013-07-24 06:19:00,58.3,57.7,30.24,West,270,0.0,4.0,98,0.00,,,0.00,Weather View 32 v70,2013-07-24 11:19:00,
2013-07-24 06:24:00,57.8,56.7,30.24,North,360,0.0,4.0,96,0.00,,,0.00,Weather View 32 v70,2013-07-24 11:24:00,
2013-07-24 06:29:00,57.4,56.0,30.24,North,360,0.0,4.0,95,0.00,,,0.00,Weather View 32 v70,2013-07-24 11:29:00,
2013-07-24 06:34:00,57.2,55.8,30.25,North,360,0.0,4.0,95,0.00,,,0.00,Weather View 32 v70,2013-07-24 11:34:00,
2013-07-24 06:39:00,57.1,55.7,30.24,North,360,0.0,4.0,95,0.00,,,0.00,Weather View 32 v70,2013-07-24 11:39:00,
2013-07-24 06:44:00,56.9,55.5,30.24,North,360,0.0,4.0,95,0.00,,,0.00,Weather View 32 v70,2013-07-24 11:44:00,
2013-07-24 06:49:00,57.0,55.6,30.25,North,360,1.0,4.0,95,0.00,,,0.00,Weather View 32 v70,2013-07-24 11:49:00,
2013-07-24 06:54:00,57.2,55.8,30.25,North,360,0.0,3.0,95,0.00,,,0.00,Weather View 32 v70,2013-07-24 11:54:00,
2013-07-24 06:59:00,57.3,55.9,30.25,North,360,0.0,2.0,95,0.00,,,0.00,Weather View 32 v70,2013-07-24 11:59:00,
2013-07-24 07:04:00,57.5,56.1,30.24,North,360,0.0,2.0,95,0.00,,,0.00,Weather View 32 v70,2013-07-24 12:04:00,
2013-07-24 07:09:00,57.7,56.3,30.25,North,360,1.0,2.0,95,0.00,,,0.00,Weather View 32 v70,2013-07-24 12:09:00,
2013-07-24 07:14:00,57.9,56.5,30.25,North,360,2.0,2.0,95,0.00,,,0.00,Weather View 32 v70,2013-07-24 12:14:00,
2013-07-24 07:19:00,58.3,57.2,30.25,North,360,1.0,3.0,96,0.00,,,0.00,Weather View 32 v70,2013-07-24 12:19:00,
2013-07-24 07:24:00,58.6,57.2,30.26,NNW,337,1.0,3.0,95,0.00,,,0.00,Weather View 32 v70,2013-07-24 12:24:00,
2013-07-24 07:29:00,58.7,57.3,30.25,NNW,337,1.0,3.0,95,0.00,,,0.00,Weather View 32 v70,2013-07-24 12:29:00,
2013-07-24 07:34:00,58.9,57.5,30.25,NNW,337,1.0,3.0,95,0.00,,,0.00,Weather View 32 v70,2013-07-24 12:34:00,
2013-07-24 07:39:00,59.0,57.6,30.25,NNW,337,0.0,3.0,95,0.00,,,0.00,Weather View 32 v70,2013-07-24 12:39:00,
2013-07-24 07:44:00,59.2,57.8,30.25,NNW,337,1.0,3.0,95,0.00,,,0.00,Weather View 32 v70,2013-07-24 12:44:00,
2013-07-24 07:49:00,59.6,57.9,30.25,NNW,337,1.0,3.0,94,0.00,,,0.00,Weather View 32 v70,2013-07-24 12:49:00,
2013-07-24 07:54:00,59.8,58.1,30.25,NNW,337,0.0,3.0,94,0.00,,,0.00,Weather View 32 v70,2013-07-24 12:54:00,
2013-07-24 07:59:00,60.1,58.1,30.25,NNW,337,0.0,3.0,93,0.00,,,0.00,Weather View 32 v70,2013-07-24 12:59:00,
2013-07-24 08:04:00,60.3,58.3,30.25,NNW,337,0.0,3.0,93,0.00,,,0.00,Weather View 32 v70,2013-07-24 13:04:00,
2013-07-24 08:09:00,60.6,58.0,30.25,NNW,337,0.0,3.0,91,0.00,,,0.00,Weather View 32 v70,2013-07-24 13:09:00,
2013-07-24 08:14:00,61.2,57.9,30.25,NW,315,2.0,3.0,89,0.00,,,0.00,Weather View 32 v70,2013-07-24 13:14:00,
2013-07-24 08:19:00,62.1,58.2,30.25,NW,315,2.0,3.0,87,0.00,,,0.00,Weather View 32 v70,2013-07-24 13:19:00,
2013-07-24 08:24:00,63.0,58.7,30.25,NW,315,1.0,3.0,86,0.00,,,0.00,Weather View 32 v70,2013-07-24 13:24:00,
2013-07-24 08:29:00,63.8,59.5,30.26,NW,315,2.0,3.0,86,0.00,,,0.00,Weather View 32 v70,2013-07-24 13:29:00,
2013-07-24 08:34:00,64.7,59.7,30.26,North,360,0.0,3.0,84,0.00,,,0.00,Weather View 32 v70,2013-07-24 13:34:00,
2013-07-24 08:39:00,65.4,59.0,30.26,NW,315,1.0,3.0,80,0.00,,,0.00,Weather View 32 v70,2013-07-24 13:39:00,
2013-07-24 08:44:00,65.9,59.2,30.26,NW,315,2.0,3.0,79,0.00,,,0.00,Weather View 32 v70,2013-07-24 13:44:00,
2013-07-24 08:49:00,66.3,59.9,30.26,NW,315,2.0,3.0,80,0.00,,,0.00,Weather View 32 v70,2013-07-24 13:49:00,
2013-07-24 08:54:00,66.7,59.6,30.26,NW,315,1.0,3.0,78,0.00,,,0.00,Weather View 32 v70,2013-07-24 13:54:00,
2013-07-24 08:59:00,67.3,59.8,30.26,NW,315,2.0,3.0,77,0.00,,,0.00,Weather View 32 v70,2013-07-24 13:59:00,
2013-07-24 09:04:00,67.8,59.2,30.27,NW,315,1.0,3.0,74,0.00,,,0.00,Weather View 32 v70,2013-07-24 14:04:00,
2013-07-24 09:09:00,68.2,59.6,30.27,NW,315,1.0,3.0,74,0.00,,,0.00,Weather View 32 v70,2013-07-24 14:09:00,
2013-07-24 09:14:00,68.8,59.8,30.27,NW,315,3.0,4.0,73,0.00,,,0.00,Weather View 32 v70,2013-07-24 14:14:00,
2013-07-24 09:19:00,68.7,59.7,30.27,NW,315,1.0,4.0,73,0.00,,,0.00,Weather View 32 v70,2013-07-24 14:19:00,
2013-07-24 09:24:00,68.5,59.5,30.27,NW,315,2.0,5.0,73,0.00,,,0.00,Weather View 32 v70,2013-07-24 14:24:00,
2013-07-24 09:29:00,68.5,59.1,30.28,WNW,292,2.0,5.0,72,0.00,,,0.00,Weather View 32 v70,2013-07-24 14:29:00,
2013-07-24 09:34:00,68.5,59.9,30.28,NW,315,1.0,5.0,74,0.00,,,0.00,Weather View 32 v70,2013-07-24 14:34:00,
2013-07-24 09:39:00,68.8,60.5,30.27,NW,315,4.0,5.0,75,0.00,,,0.00,Weather View 32 v70,2013-07-24 14:39:00,
2013-07-24 09:44:00,68.9,59.9,30.28,NW,315,2.0,5.0,73,0.00,,,0.00,Weather View 32 v70,2013-07-24 14:44:00,
2013-07-24 09:49:00,69.0,59.6,30.28,NW,315,2.0,5.0,72,0.00,,,0.00,Weather View 32 v70,2013-07-24 14:49:00,
2013-07-24 09:54:00,69.2,59.4,30.27,NW,315,2.0,5.0,71,0.00,,,0.00,Weather View 32 v70,2013-07-24 14:54:00,
2013-07-24 09:59:00,69.6,59.7,30.27,NW,315,1.0,5.0,71,0.00,,,0.00,Weather View 32 v70,2013-07-24 14:59:00,
2013-07-24 10:05:00,70.4,59.7,30.28,NW,315,0.0,5.0,69,0.00,,,0.00,Weather View 32 v70,2013-07-24 15:05:00,
2013-07-24 10:10:00,71.3,59.3,30.28,NW,315,2.0,5.0,66,0.00,,,0.00,Weather View 32 v70,2013-07-24 15:10:00,
2013-07-24 10:15:00,71.6,58.7,30.28,NW,315,0.0,5.0,64,0.00,,,0.00,Weather View 32 v70,2013-07-24 15:15:00,
2013-07-24 10:20:00,71.9,58.6,30.28,WNW,292,0.0,5.0,63,0.00,,,0.00,Weather View 32 v70,2013-07-24 15:20:00,
2013-07-24 10:25:00,72.3,58.5,30.28,WNW,292,0.0,4.0,62,0.00,,,0.00,Weather View 32 v70,2013-07-24 15:25:00,
2013-07-24 10:30:00,72.9,58.6,30.28,WNW,292,2.0,4.0,61,0.00,,,0.00,Weather View 32 v70,2013-07-24 15:30:00,
2013-07-24 10:35:00,73.2,58.0,30.28,NW,315,2.0,4.0,59,0.00,,,0.00,Weather View 32 v70,2013-07-24 15:35:00,
2013-07-24 10:40:00,73.4,57.2,30.28,NW,315,0.0,4.0,57,0.00,,,0.00,Weather View 32 v70,2013-07-24 15:40:00,
2013-07-24 10:45:00,73.4,57.2,30.28,NW,315,2.0,4.0,57,0.00,,,0.00,Weather View 32 v70,2013-07-24 15:45:00,
2013-07-24 10:50:00,73.2,58.4,30.28,NW,315,4.0,4.0,60,0.00,,,0.00,Weather View 32 v70,2013-07-24 15:50:00,
2013-07-24 10:55:00,72.9,58.2,30.28,NW,315,2.0,6.0,60,0.00,,,0.00,Weather View 32 v70,2013-07-24 15:55:00,
2013-07-24 11:00:00,72.7,57.5,30.28,WNW,292,4.0,6.0,59,0.00,,,0.00,Weather View 32 v70,2013-07-24 16:00:00,
2013-07-24 11:05:00,72.3,56.6,30.28,West,270,2.0,6.0,58,0.00,,,0.00,Weather View 32 v70,2013-07-24 16:05:00,
2013-07-24 11:10:00,72.8,57.1,30.28,WNW,292,1.0,6.0,58,0.00,,,0.00,Weather View 32 v70,2013-07-24 16:10:00,
2013-07-24 11:15:00,73.2,58.0,30.28,West,270,1.0,7.0,59,0.00,,,0.00,Weather View 32 v70,2013-07-24 16:15:00,
2013-07-24 11:20:00,73.9,59.1,30.28,West,270,2.0,7.0,60,0.00,,,0.00,Weather View 32 v70,2013-07-24 16:20:00,
2013-07-24 11:25:00,73.9,58.6,30.28,NW,315,4.0,7.0,59,0.00,,,0.00,Weather View 32 v70,2013-07-24 16:25:00,
2013-07-24 11:30:00,73.9,58.1,30.28,NW,315,1.0,7.0,58,0.00,,,0.00,Weather View 32 v70,2013-07-24 16:30:00,
2013-07-24 11:35:00,74.2,59.8,30.28,WNW,292,5.0,7.0,61,0.00,,,0.00,Weather View 32 v70,2013-07-24 16:35:00,
2013-07-24 11:40:00,74.2,57.9,30.28,NW,315,3.0,9.0,57,0.00,,,0.00,Weather View 32 v70,2013-07-24 16:40:00,
2013-07-24 11:45:00,74.2,58.4,30.28,WNW,292,6.0,9.0,58,0.00,,,0.00,Weather View 32 v70,2013-07-24 16:45:00,
2013-07-24 11:50:00,74.7,58.9,30.28,NW,315,0.0,9.0,58,0.00,,,0.00,Weather View 32 v70,2013-07-24 16:50:00,
2013-07-24 11:55:00,75.5,58.7,30.28,West,270,2.0,9.0,56,0.00,,,0.00,Weather View 32 v70,2013-07-24 16:55:00,
2013-07-24 12:00:00,75.6,58.2,30.28,NW,315,5.0,9.0,55,0.00,,,0.00,Weather View 32 v70,2013-07-24 17:00:00,
2013-07-24 12:05:00,75.4,60.0,30.28,West,270,5.0,9.0,59,0.00,,,0.00,Weather View 32 v70,2013-07-24 17:05:00,
2013-07-24 12:10:00,74.8,58.0,30.28,SW,225,3.0,9.0,56,0.00,,,0.00,Weather View 32 v70,2013-07-24 17:10:00,
2013-07-24 12:15:00,74.9,58.6,30.28,NW,315,6.0,9.0,57,0.00,,,0.00,Weather View 32 v70,2013-07-24 17:15:00,
2013-07-24 12:20:00,75.4,57.5,30.28,NW,315,3.0,9.0,54,0.00,,,0.00,Weather View 32 v70,2013-07-24 17:20:00,
2013-07-24 12:25:00,75.6,58.2,30.28,NNE,22,1.0,9.0,55,0.00,,,0.00,Weather View 32 v70,2013-07-24 17:25:00,
2013-07-24 12:30:00,76.2,57.2,30.28,NW,315,1.0,10.0,52,0.00,,,0.00,Weather View 32 v70,2013-07-24 17:30:00,
2013-07-24 12:35:00,77.1,58.1,30.28,West,270,2.0,10.0,52,0.00,,,0.00,Weather View 32 v70,2013-07-24 17:35:00,
2013-07-24 12:40:00,77.1,60.1,30.28,WNW,292,7.0,10.0,56,0.00,,,0.00,Weather View 32 v70,2013-07-24 17:40:00,
2013-07-24 12:45:00,76.7,58.2,30.28,WNW,292,3.0,10.0,53,0.00,,,0.00,Weather View 32 v70,2013-07-24 17:45:00,
2013-07-24 12:50:00,76.7,58.7,30.27,West,270,1.0,10.0,54,0.00,,,0.00,Weather View 32 v70,2013-07-24 17:50:00,
2013-07-24 12:55:00,77.4,58.9,30.27,SW,225,1.0,10.0,53,0.00,,,0.00,Weather View 32 v70,2013-07-24 17:55:00,
2013-07-24 13:00:00,78.0,62.9,30.27,NNE,22,1.0,10.0,60,0.00,,,0.00,Weather View 32 v70,2013-07-24 18:00:00,
2013-07-24 13:05:00,78.9,59.2,30.27,SW,225,0.0,10.0,51,0.00,,,0.00,Weather View 32 v70,2013-07-24 18:05:00,
2013-07-24 13:10:00,80.0,60.2,30.27,SSW,202,2.0,10.0,51,0.00,,,0.00,Weather View 32 v70,2013-07-24 18:10:00,
2013-07-24 13:15:00,79.4,59.6,30.27,West,270,4.0,10.0,51,0.00,,,0.00,Weather View 32 v70,2013-07-24 18:15:00,
2013-07-24 13:20:00,78.9,58.6,30.27,WSW,247,0.0,10.0,50,0.00,,,0.00,Weather View 32 v70,2013-07-24 18:20:00,
2013-07-24 13:25:00,79.2,58.9,30.27,WNW,292,2.0,10.0,50,0.00,,,0.00,Weather View 32 v70,2013-07-24 18:25:00,
2013-07-24 13:30:00,79.2,56.6,30.26,NW,315,6.0,9.0,46,0.00,,,0.00,Weather View 32 v70,2013-07-24 18:30:00,
2013-07-24 13:35:00,78.4,57.0,30.26,NW,315,1.0,9.0,48,0.00,,,0.00,Weather View 32 v70,2013-07-24 18:35:00,
2013-07-24 13:40:00,78.4,59.3,30.26,NW,315,1.0,9.0,52,0.00,,,0.00,Weather View 32 v70,2013-07-24 18:40:00,
2013-07-24 13:45:00,78.8,58.0,30.26,NW,315,2.0,9.0,49,0.00,,,0.00,Weather View 32 v70,2013-07-24 18:45:00,
2013-07-24 13:50:00,79.4,58.5,30.26,West,270,0.0,9.0,49,0.00,,,0.00,Weather View 32 v70,2013-07-24 18:50:00,
2013-07-24 13:55:00,80.0,58.5,30.26,NW,315,2.0,9.0,48,0.00,,,0.00,Weather View 32 v70,2013-07-24 18:55:00,
2013-07-24 14:00:00,80.1,56.8,30.26,North,360,2.0,9.0,45,0.00,,,0.00,Weather View 32 v70,2013-07-24 19:00:00,
2013-07-24 14:05:00,79.8,58.9,30.26,NW,315,2.0,9.0,49,0.00,,,0.00,Weather View 32 v70,2013-07-24 19:05:00,
2013-07-24 14:10:00,79.3,58.4,30.26,NW,315,4.0,9.0,49,0.00,,,0.00,Weather View 32 v70,2013-07-24 19:10:00,
2013-07-24 14:15:00,79.8,58.9,30.26,NW,315,7.0,8.0,49,0.00,,,0.00,Weather View 32 v70,2013-07-24 19:15:00,
2013-07-24 14:20:00,79.8,57.7,30.25,NW,315,1.0,9.0,47,0.00,,,0.00,Weather View 32 v70,2013-07-24 19:20:00,
2013-07-24 14:25:00,80.1,59.7,30.25,NW,315,4.0,9.0,50,0.00,,,0.00,Weather View 32 v70,2013-07-24 19:25:00,
2013-07-24 14:30:00,80.1,58.6,30.26,West,270,4.0,9.0,48,0.00,,,0.00,Weather View 32 v70,2013-07-24 19:30:00,
2013-07-24 14:35:00,79.7,58.2,30.25,West,270,1.0,9.0,48,0.00,,,0.00,Weather View 32 v70,2013-07-24 19:35:00,
2013-07-24 14:40:00,79.6,60.4,30.25,WSW,247,2.0,9.0,52,0.00,,,0.00,Weather View 32 v70,2013-07-24 19:40:00,
2013-07-24 14:45:00,79.2,57.2,30.26,South,180,2.0,9.0,47,0.00,,,0.00,Weather View 32 v70,2013-07-24 19:45:00,
2013-07-24 14:50:00,79.9,57.8,30.25,NW,315,2.0,9.0,47,0.00,,,0.00,Weather View 32 v70,2013-07-24 19:50:00,
2013-07-24 14:55:00,80.4,58.8,30.25,NW,315,3.0,9.0,48,0.00,,,0.00,Weather View 32 v70,2013-07-24 19:55:00,
2013-07-24 15:00:00,80.1,58.0,30.25,NW,315,2.0,9.0,47,0.00,,,0.00,Weather View 32 v70,2013-07-24 20:00:00,
2013-07-24 15:05:00,80.0,58.5,30.25,West,270,2.0,9.0,48,0.00,,,0.00,Weather View 32 v70,2013-07-24 20:05:00,
2013-07-24 15:10:00,81.0,59.4,30.25,North,360,1.0,9.0,48,0.00,,,0.00,Weather View 32 v70,2013-07-24 20:10:00,
2013-07-24 15:15:00,81.9,58.4,30.25,NW,315,2.0,9.0,45,0.00,,,0.00,Weather View 32 v70,2013-07-24 20:15:00,
2013-07-24 15:20:00,81.6,58.1,30.24,West,270,0.0,9.0,45,0.00,,,0.00,Weather View 32 v70,2013-07-24 20:20:00,
2013-07-24 15:25:00,82.1,57.9,30.24,WNW,292,0.0,9.0,44,0.00,,,0.00,Weather View 32 v70,2013-07-24 20:25:00,
2013-07-24 15:30:00,82.4,59.5,30.24,SW,225,1.0,9.0,46,0.00,,,0.00,Weather View 32 v70,2013-07-24 20:30:00,
2013-07-24 15:35:00,81.4,59.2,30.24,NW,315,8.0,9.0,47,0.00,,,0.00,Weather View 32 v70,2013-07-24 20:35:00,
2013-07-24 15:40:00,80.9,59.3,30.24,West,270,5.0,9.0,48,0.00,,,0.00,Weather View 32 v70,2013-07-24 20:40:00,
2013-07-24 15:45:00,80.7,59.1,30.24,West,270,3.0,9.0,48,0.00,,,0.00,Weather View 32 v70,2013-07-24 20:45:00,
2013-07-24 15:50:00,80.4,58.3,30.24,NNE,22,1.0,9.0,47,0.00,,,0.00,Weather View 32 v70,2013-07-24 20:50:00,
2013-07-24 15:55:00,82.1,57.9,30.24,NNE,22,0.0,9.0,44,0.00,,,0.00,Weather View 32 v70,2013-07-24 20:55:00,
2013-07-24 16:00:00,83.7,58.7,30.24,NNE,22,3.0,9.0,43,0.00,,,0.00,Weather View 32 v70,2013-07-24 21:00:00,
2013-07-24 16:05:00,83.6,59.3,30.24,NE,45,1.0,9.0,44,0.00,,,0.00,Weather View 32 v70,2013-07-24 21:05:00,
2013-07-24 16:10:00,83.4,57.8,30.23,NE,45,2.0,9.0,42,0.00,,,0.00,Weather View 32 v70,2013-07-24 21:10:00,
2013-07-24 16:15:00,84.2,59.2,30.23,NE,45,0.0,9.0,43,0.00,,,0.00,Weather View 32 v70,2013-07-24 21:15:00,
2013-07-24 16:20:00,84.1,58.4,30.23,West,270,1.0,9.0,42,0.00,,,0.00,Weather View 32 v70,2013-07-24 21:20:00,
2013-07-24 16:25:00,83.5,57.9,30.23,NNE,22,2.0,9.0,42,0.00,,,0.00,Weather View 32 v70,2013-07-24 21:25:00,
2013-07-24 16:30:00,83.5,58.6,30.23,SW,225,1.0,9.0,43,0.00,,,0.00,Weather View 32 v70,2013-07-24 21:30:00,
2013-07-24 16:35:00,83.3,58.4,30.23,NNW,337,1.0,9.0,43,0.00,,,0.00,Weather View 32 v70,2013-07-24 21:35:00,
2013-07-24 16:41:00,83.2,58.9,30.23,SSW,202,0.0,7.0,44,0.00,,,0.00,Weather View 32 v70,2013-07-24 21:41:00,
2013-07-24 16:46:00,83.2,58.3,30.23,NW,315,0.0,6.0,43,0.00,,,0.00,Weather View 32 v70,2013-07-24 21:46:00,
2013-07-24 16:51:00,83.1,58.9,30.23,WNW,292,0.0,6.0,44,0.00,,,0.00,Weather View 32 v70,2013-07-24 21:51:00,
2013-07-24 16:56:00,83.4,57.8,30.22,NW,315,0.0,6.0,42,0.00,,,0.00,Weather View 32 v70,2013-07-24 21:56:00,
2013-07-24 17:01:00,83.5,58.6,30.22,NW,315,2.0,6.0,43,0.00,,,0.00,Weather View 32 v70,2013-07-24 22:01:00,
2013-07-24 17:06:00,83.7,58.7,30.22,North,360,1.0,6.0,43,0.00,,,0.00,Weather View 32 v70,2013-07-24 22:06:00,
2013-07-24 17:11:00,83.8,58.2,30.22,NE,45,0.0,6.0,42,0.00,,,0.00,Weather View 32 v70,2013-07-24 22:11:00,
2013-07-24 17:16:00,84.5,59.5,30.22,NE,45,0.0,6.0,43,0.00,,,0.00,Weather View 32 v70,2013-07-24 22:16:00,
2013-07-24 17:21:00,84.2,58.5,30.22,SE,135,0.0,6.0,42,0.00,,,0.00,Weather View 32 v70,2013-07-24 22:21:00,
2013-07-24 17:26:00,84.5,60.1,30.22,West,270,2.0,6.0,44,0.00,,,0.00,Weather View 32 v70,2013-07-24 22:26:00,
2013-07-24 17:31:00,83.1,58.2,30.21,SW,225,2.0,6.0,43,0.00,,,0.00,Weather View 32 v70,2013-07-24 22:31:00,
2013-07-24 17:36:00,83.3,59.0,30.21,NE,45,1.0,6.0,44,0.00,,,0.00,Weather View 32 v70,2013-07-24 22:36:00,
2013-07-24 17:41:00,84.4,58.7,30.21,North,360,0.0,6.0,42,0.00,,,0.00,Weather View 32 v70,2013-07-24 22:41:00,
2013-07-24 17:46:00,83.9,59.6,30.21,West,270,2.0,6.0,44,0.00,,,0.00,Weather View 32 v70,2013-07-24 22:46:00,
2013-07-24 17:51:00,83.4,57.8,30.21,NW,315,2.0,6.0,42,0.00,,,0.00,Weather View 32 v70,2013-07-24 22:51:00,
2013-07-24 17:56:00,83.3,59.0,30.21,NW,315,0.0,6.0,44,0.00,,,0.00,Weather View 32 v70,2013-07-24 22:56:00,
2013-07-24 18:02:00,84.1,59.1,30.21,WNW,292,2.0,6.0,43,0.00,,,0.00,Weather View 32 v70,2013-07-24 23:02:00,
2013-07-24 18:07:00,84.2,57.9,30.21,SW,225,1.0,6.0,41,0.00,,,0.00,Weather View 32 v70,2013-07-24 23:07:00,
2013-07-24 18:12:00,84.9,58.5,30.22,West,270,2.0,6.0,41,0.00,,,0.00,Weather View 32 v70,2013-07-24 23:12:00,
2013-07-24 18:17:00,85.6,58.4,30.22,West,270,0.0,6.0,40,0.00,,,0.00,Weather View 32 v70,2013-07-24 23:17:00,
2013-07-24 18:22:00,84.5,59.5,30.22,West,270,2.0,6.0,43,0.00,,,0.00,Weather View 32 v70,2013-07-24 23:22:00,
2013-07-24 18:27:00,82.8,59.2,30.22,NW,315,2.0,6.0,45,0.00,,,0.00,Weather View 32 v70,2013-07-24 23:27:00,
2013-07-24 18:32:00,81.9,59.6,30.21,NW,315,2.0,6.0,47,0.00,,,0.00,Weather View 32 v70,2013-07-24 23:32:00,
2013-07-24 18:37:00,81.5,59.3,30.21,NW,315,0.0,6.0,47,0.00,,,0.00,Weather View 32 v70,2013-07-24 23:37:00,
2013-07-24 18:42:00,81.6,59.9,30.21,NW,315,0.0,6.0,48,0.00,,,0.00,Weather View 32 v70,2013-07-24 23:42:00,
2013-07-24 18:47:00,81.2,59.0,30.21,ESE,112,2.0,5.0,47,0.00,,,0.00,Weather View 32 v70,2013-07-24 23:47:00,
2013-07-24 18:52:00,81.1,58.3,30.21,SE,135,1.0,4.0,46,0.00,,,0.00,Weather View 32 v70,2013-07-24 23:52:00,
2013-07-24 18:57:00,81.4,59.2,30.21,East,90,1.0,4.0,47,0.00,,,0.00,Weather View 32 v70,2013-07-24 23:57:00,
2013-07-24 19:02:00,81.9,59.0,30.21,ENE,67,1.0,4.0,46,0.00,,,0.00,Weather View 32 v70,2013-07-25 00:02:00,
2013-07-24 19:07:00,81.4,58.6,30.21,ESE,112,2.0,5.0,46,0.00,,,0.00,Weather View 32 v70,2013-07-25 00:07:00,
2013-07-24 19:12:00,81.9,59.6,30.21,ESE,112,1.0,5.0,47,0.00,,,0.00,Weather View 32 v70,2013-07-25 00:12:00,
2013-07-24 19:17:00,82.4,58.8,30.21,East,90,0.0,5.0,45,0.00,,,0.00,Weather View 32 v70,2013-07-25 00:17:00,
2013-07-24 19:22:00,82.8,59.8,30.21,East,90,1.0,5.0,46,0.00,,,0.00,Weather View 32 v70,2013-07-25 00:22:00,
2013-07-24 19:27:00,82.5,58.3,30.21,East,90,0.0,5.0,44,0.00,,,0.00,Weather View 32 v70,2013-07-25 00:27:00,
2013-07-24 19:32:00,83.1,58.9,30.21,East,90,1.0,5.0,44,0.00,,,0.00,Weather View 32 v70,2013-07-25 00:32:00,
2013-07-24 19:38:00,83.2,58.9,30.21,East,90,1.0,5.0,44,0.00,,,0.00,Weather View 32 v70,2013-07-25 00:38:00,
2013-07-24 19:43:00,82.6,59.0,30.21,East,90,0.0,5.0,45,0.00,,,0.00,Weather View 32 v70,2013-07-25 00:43:00,
2013-07-24 19:48:00,82.8,58.6,30.21,East,90,2.0,5.0,44,0.00,,,0.00,Weather View 32 v70,2013-07-25 00:48:00,
2013-07-24 19:53:00,83.1,59.5,30.21,East,90,0.0,5.0,45,0.00,,,0.00,Weather View 32 v70,2013-07-25 00:53:00,
2013-07-24 19:58:00,81.5,59.3,30.21,SE,135,1.0,5.0,47,0.00,,,0.00,Weather View 32 v70,2013-07-25 00:58:00,
2013-07-24 20:03:00,81.6,59.9,30.22,SE,135,0.0,5.0,48,0.00,,,0.00,Weather View 32 v70,2013-07-25 01:03:00,
2013-07-24 20:08:00,80.7,58.5,30.22,ESE,112,2.0,4.0,47,0.00,,,0.00,Weather View 32 v70,2013-07-25 01:08:00,
2013-07-24 20:13:00,80.1,60.3,30.22,ESE,112,0.0,4.0,51,0.00,,,0.00,Weather View 32 v70,2013-07-25 01:13:00,
2013-07-24 20:18:00,79.9,59.5,30.22,East,90,2.0,4.0,50,0.00,,,0.00,Weather View 32 v70,2013-07-25 01:18:00,
2013-07-24 20:23:00,79.3,60.1,30.21,SE,135,0.0,4.0,52,0.00,,,0.00,Weather View 32 v70,2013-07-25 01:23:00,
2013-07-24 20:28:00,78.9,60.3,30.20,East,90,2.0,4.0,53,0.00,,,0.00,Weather View 32 v70,2013-07-25 01:28:00,
2013-07-24 20:33:00,78.5,59.9,30.20,East,90,2.0,4.0,53,0.00,,,0.00,Weather View 32 v70,2013-07-25 01:33:00,
2013-07-24 20:38:00,78.2,60.1,30.20,East,90,0.0,4.0,54,0.00,,,0.00,Weather View 32 v70,2013-07-25 01:38:00,
2013-07-24 20:43:00,77.7,60.2,30.20,East,90,0.0,4.0,55,0.00,,,0.00,Weather View 32 v70,2013-07-25 01:43:00,
2013-07-24 20:48:00,77.3,60.3,30.20,East,90,0.0,4.0,56,0.00,,,0.00,Weather View 32 v70,2013-07-25 01:48:00,
2013-07-24 20:53:00,76.8,59.4,30.20,East,90,1.0,4.0,55,0.00,,,0.00,Weather View 32 v70,2013-07-25 01:53:00,
2013-07-24 20:58:00,76.4,59.5,30.20,East,90,0.0,4.0,56,0.00,,,0.00,Weather View 32 v70,2013-07-25 01:58:00,
2013-07-24 21:03:00,76.1,59.2,30.20,East,90,0.0,4.0,56,0.00,,,0.00,Weather View 32 v70,2013-07-25 02:03:00,
2013-07-24 21:08:00,75.7,59.3,30.19,East,90,0.0,4.0,57,0.00,,,0.00,Weather View 32 v70,2013-07-25 02:08:00,
2013-07-24 21:13:00,75.3,59.0,30.19,East,90,0.0,4.0,57,0.00,,,0.00,Weather View 32 v70,2013-07-25 02:13:00,
2013-07-24 21:18:00,74.9,59.1,30.19,East,90,0.0,3.0,58,0.00,,,0.00,Weather View 32 v70,2013-07-25 02:18:00,
2013-07-24 21:23:00,74.7,59.4,30.19,East,90,0.0,2.0,59,0.00,,,0.00,Weather View 32 v70,2013-07-25 02:23:00,
2013-07-24 21:28:00,74.3,59.0,30.19,East,90,0.0,2.0,59,0.00,,,0.00,Weather View 32 v70,2013-07-25 02:28:00,
2013-07-24 21:33:00,74.1,59.7,30.19,East,90,1.0,2.0,61,0.00,,,0.00,Weather View 32 v70,2013-07-25 02:33:00,
2013-07-24 21:38:00,73.9,59.6,30.19,East,90,1.0,2.0,61,0.00,,,0.00,Weather View 32 v70,2013-07-25 02:38:00,
2013-07-24 21:43:00,73.9,59.6,30.19,East,90,2.0,2.0,61,0.00,,,0.00,Weather View 32 v70,2013-07-25 02:43:00,
2013-07-24 21:48:00,73.7,59.8,30.20,East,90,0.0,2.0,62,0.00,,,0.00,Weather View 32 v70,2013-07-25 02:48:00,
2013-07-24 21:53:00,73.5,60.1,30.20,East,90,2.0,2.0,63,0.00,,,0.00,Weather View 32 v70,2013-07-25 02:53:00,
2013-07-24 21:58:00,73.5,60.1,30.20,East,90,1.0,4.0,63,0.00,,,0.00,Weather View 32 v70,2013-07-25 02:58:00,
2013-07-24 22:03:00,73.4,59.5,30.20,East,90,0.0,4.0,62,0.00,,,0.00,Weather View 32 v70,2013-07-25 03:03:00,
2013-07-24 22:09:00,73.1,59.7,30.20,East,90,0.0,4.0,63,0.00,,,0.00,Weather View 32 v70,2013-07-25 03:09:00,
2013-07-24 22:14:00,72.8,59.9,30.20,East,90,0.0,4.0,64,0.00,,,0.00,Weather View 32 v70,2013-07-25 03:14:00,
2013-07-24 22:19:00,72.7,60.2,30.20,East,90,2.0,4.0,65,0.00,,,0.00,Weather View 32 v70,2013-07-25 03:19:00,
2013-07-24 22:24:00,72.8,59.9,30.20,East,90,1.0,4.0,64,0.00,,,0.00,Weather View 32 v70,2013-07-25 03:24:00,
2013-07-24 22:29:00,72.7,59.3,30.20,East,90,0.0,4.0,63,0.00,,,0.00,Weather View 32 v70,2013-07-25 03:29:00,
2013-07-24 22:34:00,72.5,59.6,30.20,East,90,0.0,4.0,64,0.00,,,0.00,Weather View 32 v70,2013-07-25 03:34:00,
2013-07-24 22:39:00,72.2,59.7,30.20,East,90,0.0,4.0,65,0.00,,,0.00,Weather View 32 v70,2013-07-25 03:39:00,
2013-07-24 22:44:00,72.5,60.0,30.20,East,90,1.0,4.0,65,0.00,,,0.00,Weather View 32 v70,2013-07-25 03:44:00,
2013-07-24 22:49:00,72.5,60.9,30.21,East,90,1.0,4.0,67,0.00,,,0.00,Weather View 32 v70,2013-07-25 03:49:00,
2013-07-24 22:54:00,72.5,62.1,30.21,East,90,0.0,4.0,70,0.00,,,0.00,Weather View 32 v70,2013-07-25 03:54:00,
2013-07-24 22:59:00,72.3,64.3,30.21,East,90,0.0,2.0,76,0.00,,,0.00,Weather View 32 v70,2013-07-25 03:59:00,
2013-07-24 23:01:00,71.9,63.9,30.21,East,90,0.0,2.0,76,0.00,,,0.00,Weather View 32 v70,2013-07-25 04:01:00,
2013-07-24 23:06:00,71.4,62.7,30.21,East,90,0.0,2.0,74,0.00,,,0.00,Weather View 32 v70,2013-07-25 04:06:00,
2013-07-24 23:11:00,71.0,62.6,30.21,East,90,0.0,2.0,75,0.00,,,0.00,Weather View 32 v70,2013-07-25 04:11:00,
2013-07-24 23:17:00,70.9,62.2,30.22,East,90,0.0,2.0,74,0.00,,,0.00,Weather View 32 v70,2013-07-25 04:17:00,
2013-07-24 23:22:00,70.7,62.4,30.22,East,90,0.0,2.0,75,0.00,,,0.00,Weather View 32 v70,2013-07-25 04:22:00,
2013-07-24 23:27:00,70.5,62.2,30.22,East,90,2.0,2.0,75,0.00,,,0.00,Weather View 32 v70,2013-07-25 04:27:00,
2013-07-24 23:32:00,70.4,62.4,30.22,East,90,0.0,2.0,76,0.00,,,0.00,Weather View 32 v70,2013-07-25 04:32:00,
2013-07-24 23:37:00,70.3,62.7,30.21,East,90,0.0,2.0,77,0.00,,,0.00,Weather View 32 v70,2013-07-25 04:37:00,
2013-07-24 23:42:00,70.2,63.0,30.21,East,90,0.0,2.0,78,0.00,,,0.00,Weather View 32 v70,2013-07-25 04:42:00,
2013-07-24 23:47:00,70.3,62.0,30.21,SE,135,2.0,2.0,75,0.00,,,0.00,Weather View 32 v70,2013-07-25 04:47:00,
2013-07-24 23:52:00,70.4,60.9,30.21,ESE,112,2.0,4.0,72,0.00,,,0.00,Weather View 32 v70,2013-07-25 04:52:00,
2013-07-24 23:57:00,70.4,61.3,30.21,ESE,112,2.0,4.0,73,0.00,,,0.00,Weather View 32 v70,2013-07-25 04:57:00,